Regional Weather Roundup
Issued by NWS Sterling, VA

Home | Current Version | Previous Version | Text Only | Print | Product List | Glossary On
Versions: 1 2 3 4 5 6 7 8 9 10 11 12 13 14 15 16 17 18 19 20 21 22 23 24 25 26 27 28 29 30 31 32 33 34 35 36 37 38 39 40 41 42 43 44 45 46 47 48 49 50
220
ASUS41 KLWX 250610
RWRLWX

REGIONAL WEATHER ROUNDUP
NATIONAL WEATHER SERVICE BALTIMORE MD/WASHINGTON DC
200 AM EDT WED MAY 25 2016

Note: "FAIR" indicates few or no clouds below 12,000 feet
with no significant weather and/or obstructions to visibility.
 TC=TEMPERATURE CELSIUS

 * =Non NWS site. Station does not report precipitation (e.g. rain,
    snow, etc.), thunder, or fog.

DCZ001-MDZ009-015-VAZ040>042-051-053>054-250700-
WASHINGTON METRO

CITY           SKY/WX    TMP DP  RH WIND       PRES   REMARKS
WASHINGTON NAT FAIR      63  57  81 S7        30.07S
DULLES         FAIR      57  53  86 SE3       30.08S
FT BELVOIR     FAIR      55  54  94 CALM      30.07S
QUANTICO       FAIR      61  57  87 NW5       30.09S
COLLEGE PARK*  FAIR      55  54  94 CALM      30.06S
LEESBURG*      FAIR      61  55  82 W3        30.09S
MANASSAS*      FAIR      55  55 100 CALM      30.09S

$$

MDZ006>007-011-014-250700-
BALTIMORE METRO

CITY           SKY/WX    TMP DP  RH WIND       PRES   REMARKS
BWI AIRPORT    CLEAR     60  49  66 W7        30.05R
MD SCIENCE CTR   N/A     69  48  47 MISG      30.04S
MARTIN STATE   CLEAR     63  52  67 SW3       30.05S
ANNAPOLIS      CLEAR     64  51  62 NW3       30.05R
FORT MEADE*    CLEAR     52  50  93 CALM      30.08S

$$

MDZ012-015-019>023-250700-
MARYLAND EASTERN SHORE

CITY           SKY/WX    TMP DP  RH WIND       PRES   REMARKS
OCEAN CITY     CLEAR     66  53  63 W9        30.05S
SALISBURY      CLEAR     61  54  77 CALM      30.06S
BAY BRIDGE AP* CLEAR     68  54  60 W5        30.05S
CAMBRIDGE*       N/A     57  55  94 CALM      30.05F
EASTON*        CLEAR     65  60  83 CALM      30.09S

$$

MDZ017>025-250700-
SOUTHERN MARYLAND

CITY           SKY/WX    TMP DP  RH WIND       PRES   REMARKS
PATUXENT RIVER CLEAR     67  54  63 SW9       30.06S
ST INIGOES     CLEAR     59  57  93 CALM      30.06F
LEONARDTOWN*   CLEAR     61  54  77 CALM      30.08S

$$

MDZ003>005-250700-
NORTH CENTRAL MARYLAND

CITY           SKY/WX    TMP DP  RH WIND       PRES   REMARKS
FREDERICK*     CLEAR     55  54  94 SE3       30.10S
HAGERSTOWN APT CLEAR     66  48  52 SW5       30.08S
WESTMINSTER*   CLEAR     64  61  88 W7        30.08R

$$

MDZ501>502-250700-
WESTERN MARYLAND

CITY           SKY/WX    TMP DP  RH WIND       PRES   REMARKS
OAKLAND*       NOT AVBL
CUMBERLAND*    CLEAR     54  54 100 CALM      30.16R

$$

VAZ025>031-250700-
SHENANDOAH VALLEY

CITY           SKY/WX    TMP DP  RH WIND       PRES   REMARKS
WINCHESTER*    FAIR      61  50  67 SW3       30.10S
FRONT ROYAL*   FAIR      57  52  82 S3        30.11R
LURAY*         FAIR      54  54 100 CALM      30.14R
NEW MARKET*    FAIR      54  52  94 CALM      30.14R
STAUNTON*      FAIR      52  50  93 CALM      30.17S
WAYNESBORO*    FAIR      55  48  77 SW5       30.16S

$$

WVZ021-048>050-054>055-250700-
EASTERN WEST VIRGINIA PANHANDLE

CITY           SKY/WX    TMP DP  RH WIND       PRES   REMARKS
MARTINSBURG    FAIR      60  50  69 SW6       30.09R
PETERSBURG*    FAIR      53  53  98 CALM      30.17R FOG

$$

VAZ036>039-050-250700-
CENTRAL FOOTHILLS

CITY           SKY/WX    TMP DP  RH WIND       PRES   REMARKS
CHARLOTTESVILL FAIR      61  52  72 CALM      30.11S
CULPEPER*      FAIR      56  55  99 CALM      30.10S
ORANGE*        FAIR      59  55  88 CALM      30.12S
GORDONSVILLE*  FAIR      56  55  95 W6        30.10S
WARRENTON*     FAIR      57  52  84 CALM      30.09S

$$

VAZ055>057-250700-
NORTH AND CENTRAL PIEDMONT

CITY           SKY/WX    TMP DP  RH WIND       PRES   REMARKS
FREDERICKSBRG* FAIR      59  59 100 CALM      30.08S
STAFFORD*      FAIR      55  53  95 NW3       30.13S

$$

NCZ024-NYZ072-PAZ021-071-VAZ022-071-250700-
OTHER REGIONAL OBSERVATIONS

CITY           SKY/WX    TMP DP  RH WIND       PRES   REMARKS
NEW YORK CITY  CLEAR     64  50  60 W3        30.03R
PHILADELPHIA   PTCLDY    63  53  70 CALM      30.03S
PITTSBURGH     PTCLDY    64  49  57 CALM      30.10F
ROANOKE        FAIR      57  52  83 NW3       30.18S
RICHMOND       FAIR      63  56  78 SW3       30.09S
RALEIGH        PTCLDY    62  56  80 CALM      30.15S

$$

ANZ530>537-250700-
MARINE OBSERVATIONS

STATION/POSITION TIME  TEMP    WIND        PRES
                       AIR SEA DIR/SP/G
                 (UTC) (F)     (DEG/KT/KT) (MB)
THOMAS PT LIGHT  0600   70 63  280/ 10/ 10 1018.8S
BALT KEY BRIDGE  0500   68     230/  6/  7 1017.1R
COVE POINT       0500   71     270/ 12/ 13 1018.4R
LEWISETTA        0500   69 66  250/  8/  9 1018.0R
SOLOMONS ISLAND  0518   64 63  270/  2/  3   N/A
PINEY POINT      0500          300/  2/  3   N/A

$$





USA.gov is the U.S. government's official web portal to all federal, state and local government web resources and services.